• Join FlightAware (Why Join?)
  • Login
  • US Flag 
07:39PM EDT


 

Airport Tracker/Info


-or-


 

Live Flight TrackerFlight Track Log ✈ FSR411 ✈ 17-Dec-2013 ✈ KGKY - KCMI

Flight Track Log - Related Links

Times and Time Zones

All times are in EST time to prevent confusion due to time zone crossing. See the FSR411 flight status page for this flight to view local times or setup timezone preferences in your user account.

Time Position Orientation Groundspeed Altitude Reporting Facility
EST Latitude Longitude Course Direction KTS MPH feet Rate Location/Type
11:54PM 32.6500 -97.0833 171° South 167 192 1,300  Level Dallas / Fort Worth TRACON
11:55PM 32.5939 -97.0731 171° South 207 238 3,100 2,460 Climbing Fort Worth Center
11:56PM 32.5258 -97.0392 157° South 252 290 6,500 3,300 Climbing Fort Worth Center
11:57PM 32.5517 -96.9572 69° East 280 322 9,800 3,180 Climbing Fort Worth Center
11:58PM 32.6211 -96.8914 39° Northeast 315 362 13,000 3,360 Climbing Fort Worth Center
11:59PM 32.7014 -96.8100 40° Northeast 371 427 16,700 3,480 Climbing Fort Worth Center
12:00AM 32.7847 -96.7256 40° Northeast 395 455 20,100 3,120 Climbing Fort Worth Center
12:01AM 32.8703 -96.6367 41° Northeast 408 470 23,100 2,760 Climbing Fort Worth Center
12:02AM 32.9500 -96.5553 41° Northeast 425 489 25,700 2,520 Climbing Fort Worth Center
12:03AM 33.0394 -96.4636 41° Northeast 426 490 28,300 2,400 Climbing Fort Worth Center
12:04AM 33.1511 -96.3483 41° Northeast 442 509 30,600 2,220 Climbing Fort Worth Center
12:05AM 33.2447 -96.2517 41° Northeast 446 513 32,800 2,040 Climbing Fort Worth Center
12:06AM 33.3356 -96.1556 41° Northeast 437 503 34,800 1,920 Climbing Fort Worth Center
12:07AM 33.4267 -96.0603 41° Northeast 437 503 36,700 1,680 Climbing Fort Worth Center
12:08AM 33.5161 -95.9669 41° Northeast 430 495 38,300 1,320 Climbing Fort Worth Center
12:09AM 33.6047 -95.8739 41° Northeast 426 490 39,500 1,080 Climbing Fort Worth Center
12:10AM 33.6933 -95.7808 41° Northeast 424 488 40,500 720 Climbing Fort Worth Center
12:11AM 33.7842 -95.6861 41° Northeast 430 495 41,000 240 Climbing Fort Worth Center
12:12AM 33.8767 -95.5878 41° Northeast 442 509 41,000  Level Fort Worth Center
12:13AM 33.9656 -95.4942 41° Northeast 457 526 41,000  Level Fort Worth Center
12:14AM 34.0611 -95.3928 41° Northeast 457 526 41,000  Level Fort Worth Center
12:15AM 34.1569 -95.2908 41° Northeast 459 528 41,000  Level Fort Worth Center
12:16AM 34.2658 -95.1731 42° Northeast 441 507 41,000  Level Fort Worth Center
12:17AM 34.3603 -95.0728 41° Northeast 449 517 41,000  Level Fort Worth Center
12:18AM 34.4550 -94.9706 42° Northeast 453 521 41,000  Level Fort Worth Center
12:19AM 34.5481 -94.8694 42° Northeast 450 518 41,000  Level Fort Worth Center
12:20AM 34.6417 -94.7694 41° Northeast 449 517 41,000  Level Fort Worth Center
12:21AM 34.7339 -94.6686 42° Northeast 446 513 41,000  Level Fort Worth Center
12:22AM 34.8272 -94.5656 42° Northeast 450 518 41,000  Level Fort Worth Center
12:23AM 34.9258 -94.4586 42° Northeast 450 518 41,000  Level Fort Worth Center
12:24AM 35.0181 -94.3572 42° Northeast 446 513 41,000  Level Fort Worth Center
12:25AM 35.1106 -94.2547 42° Northeast 448 516 41,000  Level Fort Worth Center
12:26AM 35.1919 -94.1644 42° Northeast 446 513 41,000  Level Fort Worth Center
12:27AM 35.2856 -94.0617 42° Northeast 450 518 41,000  Level Memphis Center
12:28AM 35.3778 -93.9583 42° Northeast 450 518 41,000  Level Memphis Center
12:29AM 35.4706 -93.8561 42° Northeast 449 517 41,000  Level Memphis Center
12:30AM 35.5631 -93.7514 43° Northeast 449 517 41,000  Level Memphis Center
12:31AM 35.6547 -93.6483 42° Northeast 447 514 41,000  Level Memphis Center
12:32AM 35.7467 -93.5458 42° Northeast 445 512 41,000  Level Memphis Center
12:33AM 35.8378 -93.4408 43° Northeast 445 512 41,000  Level Memphis Center
12:34AM 35.9294 -93.3372 42° Northeast 445 512 41,000  Level Memphis Center
12:35AM 36.0208 -93.2336 43° Northeast 445 512 41,000  Level Memphis Center
12:36AM 36.1128 -93.1292 43° Northeast 446 513 41,000  Level Memphis Center
12:37AM 36.2044 -93.0239 43° Northeast 448 516 41,000  Level Memphis Center
12:38AM 36.2969 -92.9197 42° Northeast 449 517 41,000  Level Memphis Center
12:39AM 36.3881 -92.8128 43° Northeast 448 516 41,000  Level Memphis Center
12:40AM 36.4794 -92.7067 43° Northeast 451 519 41,000  Level Memphis Center
12:41AM 36.5700 -92.6014 43° Northeast 449 517 41,000  Level Memphis Center
12:42AM 36.6614 -92.4956 43° Northeast 447 514 41,000  Level Memphis Center
12:43AM 36.7528 -92.3894 43° Northeast 447 514 41,000  Level Memphis Center
12:44AM 36.8614 -92.2639 43° Northeast 443 510 41,000  Level Kansas City Center
12:45AM 36.9519 -92.1564 43° Northeast 445 512 41,000  Level Kansas City Center
12:46AM 37.0414 -92.0506 43° Northeast 445 512 41,000  Level Kansas City Center
12:47AM 37.1325 -91.9414 44° Northeast 448 516 41,000  Level Kansas City Center
12:48AM 37.2225 -91.8336 44° Northeast 448 516 41,000  Level Kansas City Center
12:49AM 37.3122 -91.7269 43° Northeast 446 513 41,000  Level Kansas City Center
12:50AM 37.4022 -91.6197 43° Northeast 445 512 41,000  Level Kansas City Center
12:51AM 37.4908 -91.5133 44° Northeast 443 510 41,000  Level Kansas City Center
12:52AM 37.5811 -91.4058 43° Northeast 445 512 41,000  Level Kansas City Center
12:53AM 37.6697 -91.2972 44° Northeast 445 512 41,000  Level Kansas City Center
12:54AM 37.7589 -91.1900 44° Northeast 443 510 41,000  Level Kansas City Center
12:55AM 37.8478 -91.0811 44° Northeast 444 511 41,000  Level Kansas City Center
12:56AM 37.9428 -90.9642 44° Northeast 445 512 41,000  Level Kansas City Center
12:57AM 38.0319 -90.8561 44° Northeast 445 512 41,000  Level Kansas City Center
12:58AM 38.1197 -90.7458 45° Northeast 445 512 41,000  Level Kansas City Center
12:59AM 38.2083 -90.6369 44° Northeast 445 512 41,000 -480 Level Kansas City Center
01:00AM 38.2953 -90.5283 44° Northeast 441 507 40,100 -1,080 Descending Kansas City Center
01:01AM 38.3831 -90.4181 45° Northeast 445 512 38,900 -1,440 Descending Kansas City Center
01:02AM 38.4875 -90.2881 44° Northeast 448 516 37,200 -1,740 Descending Kansas City Center
01:03AM 38.5778 -90.1775 44° Northeast 447 514 35,500 -1,740 Descending Kansas City Center
01:04AM 38.6642 -90.0644 46° Northeast 445 512 33,700 -1,920 Descending Kansas City Center
01:05AM 38.7531 -89.9533 44° Northeast 457 526 31,700 -2,040 Descending Kansas City Center
01:06AM 38.8406 -89.8417 45° Northeast 451 519 29,700 -2,040 Descending Kansas City Center
01:07AM 38.9292 -89.7289 45° Northeast 450 518 27,700 -2,040 Descending Kansas City Center
01:08AM 39.0139 -89.6219 44° Northeast 433 498 25,700 -2,040 Descending Kansas City Center
01:09AM 39.0972 -89.5142 45° Northeast 426 490 23,600 -2,040 Descending Kansas City Center
01:10AM 39.1800 -89.4078 45° Northeast 423 487 21,600 -2,040 Descending Kansas City Center
01:11AM 39.2611 -89.3011 46° Northeast 419 482 19,600 -1,860 Descending Kansas City Center
01:12AM 39.3392 -89.2003 45° Northeast 405 466 17,900 -1,860 Descending Kansas City Center
01:13AM 39.4158 -89.1011 45° Northeast 395 455 15,900 -2,040 Descending Kansas City Center
01:14AM 39.4933 -89.0000 45° Northeast 388 447 13,800 -2,040 Descending Kansas City Center
01:15AM 39.5647 -88.9069 45° Northeast 371 427 11,900 -1,860 Descending Kansas City Center
01:16AM 39.6258 -88.8261 46° Northeast 327 376 10,100 -1,800 Descending Kansas City Center
01:17AM 39.6806 -88.7542 45° Northeast 291 335 8,300 -1,860 Descending Kansas City Center
01:18AM 39.7331 -88.6853 45° Northeast 274 315 6,400 -1,920 Descending Kansas City Center
01:19AM 39.7806 -88.6100 51° Northeast 271 312 4,500 -1,440 Descending Kansas City Center
01:20AM 39.8158 -88.5136 64° Northeast 273 314 3,500 -1,020 Descending Kansas City Center
01:23AM 39.9635 -88.3623 44° Northeast  Level FlightAware Approximate